Flag for Nicaragua Weather past 2 weeks in Managua, Nicaragua

91 °F

Scattered clouds.

Feels Like: 100 °F
Forecast: N/A
Wind: 12 mph from Southeast

Location: Managua A. C. Sandino

Current Time: Oct 4, 2015 at 4:24:12 PM

Latest Report: Oct 4, 2015 at 4:00 PM

Visibility: N/A

Pressure: 29.74 "Hg

Humidity: 56%

Dew point: 73 °F

Location of ManaguaLocation

Historic Weather in Managua — Graph


Managua temperature yesterday

Maximum temperature yesterday: 90 °F (at 4:00 PM)
Minimum temperature yesterday: 73 °F (at 5:00 AM)
Average temperature yesterday: 83 °F

Past Weeks' High & Low Weather Summary

High95 °F (Sep 21, 3:00 PM)100% (Sep 21, 6:00 AM)29.86 "Hg (Sep 21, 6:00 AM)
Low73 °F (Oct 3, 5:00 AM)49% (Sep 20, 4:00 PM)29.53 "Hg (Sep 28, 3:00 AM)
Average83 °F76%29.77 "Hg
* Reported Sep 19 3:00 PM — Oct 4 3:00 PM, Managua, Weather by CustomWeather, © 2015

Note: Actual official high and low records may vary slightly from our data, if they occured in-between our weather recording intervals... More about our weather records


Managua weather history for previous 24 hours

Time TempWeatherWind HumidityBarometerVisibility
3:00 PM
Sun, Oct 4
91 °FScattered clouds.14 mph52%29.74 "HgN/A
2:00 PM91 °FScattered clouds.12 mph56%29.74 "HgN/A
1:00 PM91 °FScattered clouds.7 mph56%29.77 "HgN/A
12:00 PM90 °FScattered clouds.No wind59%29.80 "HgN/A
11:00 AM88 °FScattered clouds.No wind62%29.83 "HgN/A
10:00 AM86 °FScattered clouds.No wind66%29.86 "HgN/A
9:00 AM84 °FScattered clouds.No wind74%29.86 "HgN/A
8:00 AM82 °FScattered clouds.No wind79%29.86 "HgN/A
7:00 AM77 °FScattered clouds.No wind89%29.83 "HgN/A
6:00 AM75 °FScattered clouds.No wind89%29.80 "HgN/A
5:00 AM75 °FPassing clouds.5 mph89%29.77 "HgN/A
4:00 AM75 °FPassing clouds.No wind94%29.77 "HgN/A
3:00 AM77 °FPassing clouds.No wind83%29.74 "HgN/A
1:00 AM77 °FPassing clouds.No wind89%29.77 "HgN/A
12:00 AM77 °FPassing clouds.5 mph89%29.77 "HgN/A
11:00 PM
Sat, Oct 3
79 °FPassing clouds.5 mph84%29.80 "HgN/A
10:00 PM79 °FPassing clouds.5 mph89%29.80 "Hg6 mi
9:00 PM81 °FPassing clouds.No wind84%29.80 "Hg6 mi
8:00 PM82 °FPassing clouds.7 mph79%29.77 "Hg6 mi
7:00 PM84 °FPassing clouds.5 mph79%29.74 "HgN/A
6:00 PM86 °FPassing clouds.No wind75%29.71 "HgN/A
5:00 PM88 °FPartly sunny.5 mph70%29.68 "Hg6 mi
4:00 PM90 °FScattered clouds.5 mph63%29.68 "HgN/A
Weather by CustomWeather, © 2015

See weather overviewHow to use our weather pages